Flag for Lithuania Weather past 2 weeks in Kaunas, Lithuania

Now
52 °F

Scattered clouds.


Feels Like: 49 °F
Forecast: 36 / 57 °F
Wind: 8 mph from East

Location: Kaunas

Current Time: Oct 1, 2014 at 12:44:35 PM

Latest Report: Oct 1, 2014 at 12:20 PM


Visibility: N/A

Pressure: 30.45 "Hg

Humidity: 50%

Dew point: 34 °F

Location of KaunasLocation

Historic Weather in Kaunas — Graph

°F

Kaunas temperature yesterday

Maximum temperature yesterday: 61 °F (at 12:50 PM)
Minimum temperature yesterday: 41 °F (at 10:50 PM)
Average temperature yesterday: 53 °F

Past Weeks' High & Low Weather Summary

 TemperatureHumidityPressure
High70 °F (Sep 18, 2:20 PM)94% (Sep 27, 5:50 AM)30.45 "Hg (Sep 27, 5:50 AM)
Low32 °F (Sep 24, 5:50 AM)30% (Sep 18, 1:50 PM)29.53 "Hg (Sep 22, 11:50 AM)
Average52 °F71%30.03 "Hg
* Reported Sep 16 11:20 AM — Oct 1 11:50 AM, Kaunas, Weather by CustomWeather, © 2014

Note: Actual official high and low records may vary slightly from our data, if they occured in-between our weather recording intervals... More about our weather records

Advertising

Kaunas weather history for previous 24 hours

 ConditionsComfort  
Time TempWeatherWind HumidityBarometerVisibility
11:50 AM
Oct 1
50 °FPassing clouds.7 mph58%30.45 "HgN/A
11:20 AM50 °FPassing clouds.7 mph62%30.45 "HgN/A
10:50 AM48 °FPassing clouds.7 mph66%30.45 "HgN/A
10:20 AM46 °FSunny.6 mph76%30.45 "Hg10 mi
9:50 AM45 °FPassing clouds.7 mph76%30.45 "HgN/A
9:20 AM43 °FPassing clouds.3 mph81%30.42 "HgN/A
8:50 AM41 °FSunny.No wind87%30.42 "Hg10 mi
8:20 AM37 °FFog.2 mph93%30.42 "HgN/A
7:50 AM36 °FFog.2 mph93%30.39 "HgN/A
7:20 AM37 °FFog.3 mph93%30.39 "HgN/A
6:50 AM39 °FFog.5 mph93%30.39 "HgN/A
6:20 AM39 °FPassing clouds.5 mph93%30.39 "HgN/A
5:50 AM39 °FPassing clouds.2 mph93%30.39 "HgN/A
5:20 AM37 °FPassing clouds.1 mph93%30.39 "HgN/A
4:50 AM37 °FPassing clouds.No wind93%30.36 "HgN/A
4:20 AM37 °FPassing clouds.No wind93%30.36 "Hg4 mi
3:50 AM37 °FPassing clouds.2 mph93%30.36 "HgN/A
3:20 AM37 °FPassing clouds.1 mph93%30.36 "HgN/A
2:50 AM39 °FChilly.2 mph93%30.36 "HgN/A
2:20 AM37 °FChilly.1 mph93%30.33 "Hg6 mi
1:50 AM39 °FChilly.No wind93%30.33 "HgN/A
1:20 AM39 °FChilly.No wind93%30.33 "HgN/A
12:50 AM39 °FChilly.No wind93%30.33 "HgN/A
12:20 AM41 °FQuite cool.No wind87%30.33 "HgN/A
11:50 PM
Sep 30
41 °FClear.No wind93%30.30 "Hg10 mi
11:20 PM41 °FClear.No wind93%30.30 "Hg10 mi
10:50 PM41 °FPassing clouds.No wind87%30.30 "HgN/A
10:20 PM43 °FPassing clouds.No wind87%30.30 "HgN/A
9:50 PM43 °FClear.No wind87%30.30 "Hg10 mi
9:20 PM43 °FClear.No wind87%30.27 "Hg10 mi
8:50 PM45 °FClear.No wind81%30.27 "Hg10 mi
8:20 PM45 °FClear.No wind81%30.27 "Hg10 mi
7:50 PM48 °FSunny.No wind71%30.24 "Hg10 mi
7:20 PM50 °FSunny.No wind67%30.24 "Hg10 mi
6:50 PM52 °FSunny.No wind58%30.24 "Hg10 mi
6:20 PM54 °FSunny.1 mph54%30.21 "Hg10 mi
5:50 PM55 °FPassing clouds.3 mph47%30.21 "HgN/A
5:20 PM57 °FPassing clouds.6 mph41%30.21 "HgN/A
4:50 PM59 °FPassing clouds.6 mph39%30.21 "HgN/A
4:20 PM59 °FPassing clouds.8 mph45%30.21 "HgN/A
3:50 PM59 °FPassing clouds.6 mph45%30.21 "HgN/A
3:20 PM59 °FPassing clouds.6 mph42%30.21 "HgN/A
2:50 PM61 °FPartly sunny.5 mph48%30.21 "HgN/A
2:20 PM61 °FPartly sunny.5 mph45%30.18 "HgN/A
1:50 PM59 °FScattered clouds.5 mph51%30.18 "HgN/A
1:20 PM59 °FPartly sunny.2 mph55%30.21 "HgN/A
12:50 PM61 °FBroken clouds.3 mph59%30.18 "HgN/A
12:20 PM57 °FScattered clouds.5 mph72%30.18 "HgN/A
Weather by CustomWeather, © 2014

See weather overviewHow to use our weather pages